Regional Weather Roundup
Issued by NWS

Home | Current Version | Previous Version | Graphics & Text | Print | Product List | Glossary Off
Versions: 1 2 3 4 5 6 7 8 9 10 11 12 13 14 15 16 17 18 19 20 21 22 23 24 25 26 27 28 29 30 31 32 33 34 35 36 37 38 39 40 41 42 43 44 45 46 47 48 49 50

000
ASUS43 KMKX 210321
RWRWI

WISCONSIN REGIONAL WEATHER ROUNDUP
NATIONAL WEATHER SERVICE MILWAUKEE/SULLIVAN WI
1000 PM CDT MON APR 20 2015

NOTE: "FAIR" INDICATES FEW OR NO CLOUDS BELOW 12,000 FEET WITH NO
SIGNIFICANT WEATHER AND/OR OBSTRUCTIONS TO VISIBILITY.

WIZ001-002-006>008-014>016-023>028-210400-
NORTHWEST WISCONSIN

CITY           SKY/WX    TMP DP  RH WIND       PRES   REMARKS
SUPERIOR ARPT  DRIZZLE   34  31  89 W12       29.41F WCI  26
ASHLAND        LGT SNOW  33  30  88 SW9       29.39S FOG     WCI  25
HAYWARD        LGT SNOW  33  28  81 W8        29.42F WCI  26
SIREN          FLURRIES  34  32  90 W6        29.47F WCI  29
CUMBERLAND     FLURRIES  32  32 100 W9        29.46S WCI  24
RICE LAKE      FLURRIES  34  31  88 W9        29.48S WCI  27
CHETEK         CLOUDY    35  31  84 W9        29.47S WCI  28
LADYSMITH      FLURRIES  36  31  81 W13G18    29.45S WCI  27
EAU CLAIRE     CLOUDY    37  28  70 W16G26    29.48R WCI  28
MENOMONIE      CLOUDY    38  30  72 W18G24    29.50R WCI  29
NEW RICHMOND   CLOUDY    38  28  68 NW14      29.50S WCI  29
OSCEOLA        CLOUDY    38  30  71 W16       29.52F WCI  29
$$

WIZ003>005-009-010-017-018-210400-
NORTH CENTRAL WISCONSIN

CITY           SKY/WX    TMP DP  RH WIND       PRES   REMARKS
MANITOWISH WTR FLURRIES  33  29  86 W13G22    29.35F WCI  23
ARBOR VITAE    FLURRIES  37  30  78 W12G18    29.36S WCI  29
WOODRUFF       FLURRIES  37  30  78 W12G18    29.36S WCI  29
RHINELANDER    CLOUDY    35  28  75 W12G21    29.37F WCI  27
EAGLE RIVER    FLURRIES  34  27  76 W13G18    29.34F WCI  25
LAND O LAKES   CLOUDY    34  30  85 W9G17     29.34F WCI  26
PHILLIPS       CLOUDY    34  27  75 W7        29.39S WCI  28
TOMAHAWK       CLOUDY    34  26  71 W8G16     29.40F WCI  27
MEDFORD        FLURRIES  35  27  75 W10G17    29.42F WCI  27
MERRILL        CLOUDY    36  27  69 W10G18    29.41S WCI  28
$$

WIZ029-030-035-036-043>047-210400-
CENTRAL WISCONSIN

CITY           SKY/WX    TMP DP  RH WIND       PRES   REMARKS
WAUSAU         CLOUDY    37  26  64 W14       29.42S WCI  28
MOSINEE        CLOUDY    36  27  69 W17G24    29.45S WCI  25
MARSHFIELD     CLOUDY    37  27  67 W10       29.45S WCI  30
STEVENS POINT  CLOUDY    37  25  62 W9G20     29.45F WCI  30
WAUPACA        CLOUDY    41  31  67 SW10      29.47F
WAUTOMA        CLOUDY    41  30  65 W10       29.49S
WISC RAPIDS    CLOUDY    39  26  59 W12G20    29.48S WCI  32
CAMP DOUGLAS   CLOUDY    39  30  70 W14       29.50S WCI  31
$$

WIZ011>013-019>022-031-037>040-048>050-210400-
NORTHEAST WISCONSIN

CITY           SKY/WX    TMP DP  RH WIND       PRES   REMARKS
ANTIGO         DRIZZLE   35  30  83 W9        29.39F WCI  27
SHAWANO        CLOUDY    41  31  68 SW7       29.44S
OCONTO         CLOUDY    39  31  73 W13       29.42S WCI  32
STURGEON BAY   CLOUDY    39  28  65 W12       29.44S WCI  32
GREEN BAY      CLOUDY    41  31  67 W12       29.45S
MANITOWOC      CLOUDY    41  31  67 W10G20    29.47R
APPLETON       CLOUDY    39  28  65 W17       29.47S WCI  30
CLINTONVILLE   CLOUDY    39  30  70 W9        29.44F WCI  33
OSHKOSH        CLOUDY    40  30  67 SW6       29.48S
$$

WIZ032>034-041-042-053>061-210400-
SOUTHWEST WISCONSIN

CITY           SKY/WX    TMP DP  RH WIND       PRES   REMARKS
LA CROSSE      PTCLDY    42  30  62 W18G29    29.53F
SPARTA         CLOUDY    40  28  61 W12G18    29.52F WCI  33
VIROQUA        CLOUDY    38  31  75 W18G30    29.54S WCI  29
BOSCOBEL       CLOUDY    43  31  62 W13G18    29.59R
PRAIRIE DU CHI CLOUDY    42  30  63 W12G20    29.61S
PLATTEVILLE    CLOUDY    41  32  70 W20       29.61R
$$

WIZ056-057-062-063-064-067-068-210400-
SOUTH CENTRAL WISCONSIN

CITY           SKY/WX    TMP DP  RH WIND       PRES   REMARKS
REEDSBURG      CLOUDY    40  28  60 W15G23    29.53S WCI  32
BARABOO/DELLS  CLOUDY    40  26  57 W14G21    29.52S WCI  33
LONE ROCK      CLOUDY    43  29  57 W16G28    29.57R
MINERAL POINT  CLOUDY    41  32  70 W17G24    29.57S
MADISON        CLOUDY    42  28  57 VRB7G18   29.54S
MIDDLETON      CLOUDY    43  27  53 W13       29.55S
WATERTOWN      CLOUDY    41  32  69 W10G18    29.53S
MONROE         CLOUDY    41  32  70 W17G23    29.58S
JANESVILLE     CLOUDY    43  32  65 W15G23    29.57S
$$

WIZ051-052-058>065-066-070>072-210400-
SOUTHEAST WISCONSIN

CITY           SKY/WX    TMP DP  RH WIND       PRES   REMARKS
MILWAUKEE      CLOUDY    44  29  55 W8        29.55R
WAUKESHA       DRIZZLE   39  32  75 W12G17    29.55R WCI  32
MILWAUKEE/TIMM CLOUDY    41  30  65 W9        29.54S
RACINE         CLOUDY    43  31  62 SW9       29.57R
BURLINGTON     CLOUDY    40  31  70 W14G21    29.56S WCI  33
KENOSHA        CLOUDY    43  32  65 W18       29.57R
FOND DU LAC    CLOUDY    41  30  65 SW9       29.50S
SHEBOYGAN      CLOUDY    40  29  64 W14       29.49R WCI  32
WEST BEND      CLOUDY    39  30  70 W12       29.51S WCI  32
JUNEAU         CLOUDY    39  32  75 SW8       29.53S WCI  34
$$

LSZ147-162-210400-
LAKE SUPERIOR

STATION/POSITION TIME  TEMP    WIND        PRES    WAVE
                       AIR SEA DIR/SP/G            HT/PER
                 (UTC) (F)     (DEG/KT/KT) (MB)    (FT/S)
DEVILS ISLAND    0300   35     250/ 23/ 28  993.9F
PORT WING        0240   37     250/ 13/ 22  995.3F
SAXON HARBOR     0200   37     250/ 10/ 15  994.9S
$$

LMZ867-665-643>646-210400-
LAKE MICHIGAN

STATION/POSITION TIME  TEMP    WIND        PRES    WAVE
                       AIR SEA DIR/SP/G            HT/PER
                 (UTC) (F)     (DEG/KT/KT) (MB)    (FT/S)
CHAMBERS ISLAND  0200   39     220/  8/ 14  995.9R
NORTHPORT PIER   0200   39     270/  4/ 11  995.6R
SISTER BAY       0202   39     300/ 17/ 21   N/A
KEWAUNEE LAKESHO 0200   41     280/ 13/ 18  996.6R
SHEBOYGAN LAKESH 0300   42     250/ 14/ 17  999.2S
PORT WASHINGTON  0200   43     270/  9/ 18 1000.0R
MILWAUKEE LAKESH 0300   44     260/  9/ 12   N/A
KENOSHA   LAKESH 0300   45     260/ 15/ 19 1001.7R
$$

TC  - TEMPERATURE IN CELSIUS
VSB - VISIBILITY IN STATUTE MILES
WCI - WIND CHILL INDEX
HX  - HEAT INDEX




USA.gov is the U.S. government's official web portal to all federal, state and local government web resources and services.